Weather observations for the past three days for
Halifax-Northampton Regional Airport
Imperial (Metric)
Date Time (edt) Wind (mph) Vis. (mi.) Weather Sky Cond. Temperature (ºF) Relative Humidity Wind Chill (°F) Heat Index (°F) Pressure Precipitation (in)
Air Dwpt 6 hour altimeter (in) sea level (mb) 1 hr 3 hr 6 hr
Max. Min.
17 09:30 SW 9 10.00 Fair CLR 80.6 78.8 94% 88 29.97 0.0
17 09:10 SW 8 10.00 Fair CLR 80.6 78.8 94% 88 29.98 0.0
17 08:50 SW 13 10.00 Fair CLR 80.6 78.8 94% 88 29.99 0.0
17 08:30 SW 10 10.00 Fair CLR 80.6 78.8 94% 88 29.98 0.0
17 08:10 SW 8 10.00 Fair CLR 78.8 77 94% 83 29.97 0.0
17 07:50 SW 12 10.00 Fair CLR 77 77 100% 78 29.96 0.0
17 07:30 SW 8 10.00 Fair CLR 75.2 75.2 100% 73 29.96 0.0
17 07:10 S 7 10.00 Fair CLR 73.4 73.4 100% 29.95 0.0
17 06:50 SW 6 10.00 Fair CLR 73.4 73.4 100% 29.95 0.0
17 06:30 S 6 10.00 Fair CLR 73.4 73.4 100% 29.94 0.0
17 06:10 S 7 10.00 Fair CLR 73.4 73.4 100% 29.93 0.0
17 05:50 S 8 10.00 Fair CLR 73.4 73.4 100% 29.93 0.0
17 05:30 S 7 10.00 Fair CLR 73.4 73.4 100% 29.91 0.0
17 05:10 SW 8 10.00 Fair CLR 73.4 73.4 100% 29.91 0.0
17 04:50 S 6 10.00 Fair CLR 73.4 73.4 100% 29.91 0.0
17 04:30 SW 6 10.00 Fair CLR 73.4 73.4 100% 29.91 0.0
17 04:10 SW 6 10.00 Fair CLR 75.2 75.2 100% 73 29.91 0.0
17 03:50 SW 5 10.00 Fair CLR 75.2 75.2 100% 73 29.91 0.0
17 03:30 S 6 10.00 Fair CLR 77 75.2 94% 78 29.91 0.0
17 03:10 S 7 10.00 Fair CLR 77 75.2 94% 78 29.91 0.0
17 02:50 S 6 10.00 Fair CLR 77 75.2 94% 78 29.91 0.0
17 02:30 S 6 10.00 Fair CLR 77 75.2 94% 78 29.91 0.0
17 01:50 S 9 10.00 Fair CLR 78.8 75.2 89% 82 29.92 0.0
17 01:30 S 10 10.00 Fair CLR 78.8 77 94% 83 29.93 0.0
17 01:10 SW 10 10.00 Fair CLR 78.8 77 94% 83 29.93 0.0
17 00:50 SW 8 10.00 Fair CLR 78.8 77 94% 83 29.93 0.0
17 00:30 SW 13 10.00 Fair CLR 78.8 77 94% 83 29.93 0.0
17 00:10 SW 9 10.00 Fair CLR 80.6 77 89% 87 29.93 0.0
16 23:50 SW 9 10.00 Fair CLR 80.6 77 89% 87 29.94 0.0
16 23:30 SW 7 10.00 Fair CLR 80.6 77 89% 87 29.93 0.0
16 23:10 SW 9 10.00 Fair CLR 80.6 77 89% 87 29.93 0.0
16 22:50 SW 10 10.00 Fair CLR 82.4 77 84% 91 29.93 0.0
16 22:30 SW 10 10.00 Fair CLR 82.4 77 84% 91 29.92 0.0
16 22:10 SW 9 10.00 Fair CLR 82.4 77 84% 91 29.92 0.0
16 21:50 SW 12 10.00 Fair CLR 82.4 78.8 89% 92 29.91 0.0
16 21:30 S 6 10.00 Fair CLR 82.4 78.8 89% 92 29.9 0.0
16 21:10 S 3 10.00 Fair CLR 82.4 78.8 89% 92 29.91 0.0
16 20:50 S 5 10.00 Fair CLR 82.4 78.8 89% 92 29.9 0.0
16 20:30 S 5 10.00 Fair CLR 84.2 78.8 84% 96 29.91 0.0
16 20:10 S 6 10.00 Fair CLR 86 80.6 84% 102 29.9 0.0
16 19:50 S 8 10.00 Fair CLR 87.8 80.6 79% 105 29.89 0.0
16 19:30 S 7 10.00 Fair CLR 87.8 80.6 79% 105 29.89 0.0
16 19:10 SW 8 10.00 Fair CLR 89.6 80.6 75% 108 29.9 0.0
16 18:50 SW 9 10.00 Fair CLR 89.6 80.6 75% 108 29.89 0.0
16 18:30 SW 9 10.00 Fair CLR 89.6 80.6 75% 108 29.89 0.0
16 18:10 SW 13 10.00 Fair CLR 89.6 80.6 75% 108 29.88 0.0
16 17:50 SW 14 10.00 Fair CLR 89.6 80.6 75% 108 29.88 0.0
16 17:30 S 12 10.00 Fair CLR 89.6 80.6 75% 108 29.88 0.0
16 17:10 S 10 G 17 10.00 Fair CLR 91.4 80.6 71% 111 29.88 0.0
16 16:50 SW 10 10.00 Fair CLR 91.4 80.6 71% 111 29.88 0.0
16 16:30 SW 13 G 20 10.00 Fair CLR 89.6 80.6 75% 108 29.89 0.0
16 16:10 S 12 10.00 Fair CLR 89.6 80.6 75% 108 29.89 0.0
16 15:50 S 12 10.00 Fair CLR 89.6 80.6 75% 108 29.89 0.0
16 15:30 S 9 10.00 Partly Cloudy SCT039 89.6 80.6 75% 108 29.9 0.0
16 15:10 S 12 10.00 Fair CLR 89.6 80.6 75% 108 29.91 0.0
16 14:50 SW 13 G 16 10.00 Partly Cloudy SCT033 89.6 82.4 79% 111 29.92 0.0
16 14:30 SW 10 10.00 Partly Cloudy SCT033 89.6 82.4 79% 111 29.92 0.0
16 14:10 S 9 10.00 Fair CLR 89.6 82.4 79% 111 29.92 0.0
16 13:50 SW 8 10.00 Fair CLR 87.8 80.6 79% 105 29.93 0.0
16 13:30 SW 12 G 18 10.00 Fair CLR 87.8 80.6 79% 105 29.94 0.0
16 13:10 SW 10 10.00 Fair CLR 87.8 80.6 79% 105 29.94 0.0
16 12:50 S 12 G 16 10.00 Fair CLR 87.8 80.6 79% 105 29.94 0.0
16 12:30 SW 10 10.00 Fair CLR 86 80.6 84% 102 29.95 0.0
16 12:10 SW 10 10.00 Fair CLR 86 80.6 84% 102 29.96 0.0
16 11:50 S 8 10.00 Fair CLR 86 80.6 84% 102 29.95 0.0
16 11:30 S 7 10.00 Fair CLR 86 80.6 84% 102 29.96 0.0
16 11:10 S 7 10.00 Fair CLR 82.4 80.6 94% 94 29.96 0.0
16 10:50 S 9 10.00 Fair CLR 82.4 80.6 94% 94 29.96 0.0
16 10:10 S 9 10.00 Fair CLR 80.6 78.8 94% 88 29.95 0.0
16 09:50 SW 7 10.00 Fair CLR 78.8 78.8 100% 83 29.96 0.0
16 09:30 S 8 10.00 Fair CLR 78.8 78.8 100% 83 29.95 0.0
16 09:10 S 7 10.00 Fair CLR 78.8 78.8 100% 83 29.96 0.0
16 08:50 S 8 10.00 Fair CLR 77 77 100% 78 29.96 0.0
16 08:30 S 7 10.00 Fair CLR 77 77 100% 78 29.96 0.0
16 08:10 S 9 10.00 Fair CLR 77 77 100% 78 29.95 0.0
16 07:50 S 7 10.00 Fair CLR 73.4 73.4 100% 29.94 0.0
16 07:30 S 7 10.00 Fair CLR 73.4 73.4 100% 29.94 0.0
16 07:10 S 6 10.00 Fair CLR 73.4 73.4 100% 29.94 0.0
16 06:50 S 6 10.00 Fair CLR 71.6 71.6 100% 29.94 0.0
16 06:30 S 7 10.00 Fair CLR 71.6 71.6 100% 29.94 0.0
16 06:10 S 3 10.00 Fair CLR 71.6 71.6 100% 29.94 0.0
16 05:50 S 5 10.00 Fair CLR 71.6 71.6 100% 29.94 0.0
16 05:30 SW 3 10.00 Fair CLR 71.6 71.6 100% 29.95 0.0
16 05:10 Calm 10.00 Fair CLR 71.6 71.6 100% 29.93 0.0
16 04:50 S 5 10.00 Fair CLR 71.6 71.6 100% 29.92 0.0
16 04:30 SW 5 10.00 Fair CLR 73.4 73.4 100% 29.91 0.0
16 04:10 SW 6 10.00 Fair CLR 71.6 71.6 100% 29.92 0.0
16 03:50 S 6 10.00 Fair CLR 73.4 73.4 100% 29.91 0.0
16 03:30 SW 6 10.00 Fair CLR 73.4 73.4 100% 29.92 0.0
16 03:10 SW 8 10.00 Fair CLR 73.4 73.4 100% 29.91 0.0
16 02:50 SW 7 10.00 Fair CLR 73.4 73.4 100% 29.91 0.0
16 02:30 SW 6 10.00 Fair CLR 73.4 73.4 100% 29.91 0.0
16 02:10 SW 7 10.00 Fair CLR 73.4 73.4 100% 29.91 0.0
16 01:50 S 8 10.00 Fair CLR 73.4 73.4 100% 29.92 0.0
16 01:30 S 7 10.00 Fair CLR 75.2 75.2 100% 73 29.93 0.0
16 01:10 S 7 10.00 Fair CLR 75.2 75.2 100% 73 29.94 0.0
16 00:50 S 6 10.00 Fair CLR 75.2 75.2 100% 73 29.94 0.0
16 00:30 SW 7 10.00 Fair CLR 77 75.2 94% 78 29.94 0.0
16 00:10 S 7 10.00 Fair CLR 77 75.2 94% 78 29.94 0.0
15 23:50 SW 6 10.00 Fair CLR 77 77 100% 78 29.94 0.0
15 23:30 SW 6 10.00 Fair CLR 77 77 100% 78 29.94 0.0
15 23:10 S 6 10.00 Fair CLR 78.8 77 94% 83 29.93 0.0
15 22:50 SW 8 10.00 Fair CLR 78.8 77 94% 83 29.94 0.0
15 22:30 SW 9 10.00 Fair CLR 80.6 77 89% 87 29.94 0.0
15 22:10 SW 8 10.00 Fair CLR 80.6 77 89% 87 29.93 0.0
15 21:50 SW 7 10.00 Fair CLR 82.4 77 84% 91 29.93 0.0
15 21:30 SW 8 10.00 Fair CLR 82.4 78.8 89% 92 29.92 0.0
15 21:10 S 3 10.00 Fair CLR 80.6 80.6 100% 89 29.92 0.0
15 20:50 S 3 10.00 Fair CLR 82.4 80.6 94% 94 29.92 0.0
15 20:30 S 3 10.00 Fair CLR 84.2 80.6 89% 98 29.92 0.0
15 20:10 S 3 10.00 Fair CLR 86 82.4 89% 105 29.92 0.0
15 19:50 S 3 10.00 Fair CLR 87.8 82.4 84% 108 29.91 0.0
15 19:30 SW 5 10.00 Fair CLR 87.8 82.4 84% 108 29.91 0.0
15 19:10 S 5 10.00 Fair CLR 89.6 80.6 75% 108 29.91 0.0
15 18:50 SW 3 10.00 Fair CLR 89.6 80.6 75% 108 29.9 0.0
15 18:30 S 3 10.00 Fair CLR 89.6 80.6 75% 108 29.9 0.0
15 18:10 S 6 10.00 Fair CLR 89.6 80.6 75% 108 29.9 0.0
15 17:50 S 5 10.00 Fair CLR 89.6 80.6 75% 108 29.9 0.0
15 17:30 S 7 10.00 Fair CLR 91.4 80.6 71% 111 29.92 0.0
15 17:10 SW 5 10.00 Fair CLR 91.4 80.6 71% 111 29.92 0.0
15 16:50 SW 8 10.00 Fair CLR 91.4 80.6 71% 111 29.93 0.0
15 16:30 Calm 10.00 Fair CLR 89.6 80.6 75% 108 29.93 0.0
15 16:10 S 3 10.00 Fair CLR 89.6 78.8 71% 105 29.93 0.0
15 15:50 S 6 10.00 Fair CLR 91.4 78.8 67% 108 29.93 0.0
15 15:30 S 6 10.00 Fair CLR 91.4 78.8 67% 108 29.94 0.0
15 15:10 SE 7 10.00 Fair CLR 91.4 77 63% 105 29.94 0.0
15 14:50 SE 3 10.00 Fair CLR 93.2 78.8 63% 110 29.95 0.0
15 14:30 SE 5 10.00 Fair CLR 93.2 77 59% 107 29.97 0.0
15 14:10 Calm 10.00 Fair CLR 91.4 77 63% 105 29.98 0.0
15 13:50 S 6 10.00 Fair CLR 91.4 77 63% 105 29.98 0.0
15 13:30 Calm 10.00 Fair CLR 91.4 77 63% 105 29.99 0.0
15 13:10 SW 5 10.00 Fair CLR 91.4 77 63% 105 30 0.0
15 12:50 W 3 10.00 Fair CLR 89.6 77 67% 103 30 0.0
15 12:30 Calm 7.00 Fair CLR 89.6 77 67% 103 30 0.0
15 12:10 SW 3 10.00 Fair CLR 89.6 78.8 71% 105 30 0.0
15 11:50 W 3 10.00 Fair CLR 89.6 78.8 71% 105 30.01 0.0
15 11:30 S 3 10.00 Fair CLR 87.8 77 70% 100 30 0.0
15 10:50 Calm 10.00 Fair CLR 86 77 75% 97 30.02 0.0
15 10:30 W 3 10.00 Fair CLR 86 78.8 79% 99 30.02 0.0
15 10:10 SW 5 10.00 Fair CLR 86 80.6 84% 102 30.02 0.0
15 09:50 SW 3 10.00 Fair CLR 82.4 78.8 89% 92 30.02 0.0
15 09:30 W 5 10.00 Fair CLR 82.4 78.8 89% 92 30.02 0.0
15 08:50 W 6 10.00 Fair CLR 78.8 78.8 100% 83 30.02 0.0
15 08:30 W 5 10.00 Fair CLR 78.8 78.8 100% 83 30.02 0.0
15 08:10 SW 7 10.00 Fair CLR 77 77 100% 78 30.02 0.0
15 07:50 SW 7 10.00 Fair CLR 75.2 75.2 100% 73 30.01 0.0
15 07:30 SW 3 7.00 Fair CLR 73.4 73.4 100% 30.01 0.0
15 07:10 SW 6 7.00 Fair CLR 73.4 73.4 100% 30.01 0.0
15 06:50 Calm 5.00 Fog/Mist CLR 71.6 71.6 100% 30 0.0
15 06:30 Calm 4.00 Fog/Mist CLR 71.6 71.6 100% 29.99 0.0
15 06:10 Calm 1.75 Fog/Mist VV007 71.6 71.6 100% 29.99 0.0
15 05:50 Calm 5.00 Fog/Mist CLR 71.6 71.6 100% 29.99 0.0
15 05:30 Calm 7.00 Fair CLR 71.6 71.6 100% 29.99 0.0
15 05:10 Calm 7.00 Fair CLR 71.6 71.6 100% 29.99 0.0
15 04:50 SW 3 10.00 Fair CLR 71.6 71.6 100% 29.98 0.0
15 04:30 S 3 10.00 Fair CLR 71.6 71.6 100% 29.97 0.0
15 04:10 SW 3 10.00 Fair CLR 71.6 71.6 100% 29.97 0.0
15 03:50 Calm 10.00 Fair CLR 71.6 71.6 100% 29.97 0.0
15 03:30 SW 3 10.00 Fair CLR 71.6 71.6 100% 29.96 0.0
15 03:10 S 5 10.00 Fair CLR 71.6 71.6 100% 29.97 0.0
15 02:50 S 6 10.00 Fair CLR 71.6 71.6 100% 29.97 0.0
15 02:30 S 5 10.00 Fair CLR 71.6 71.6 100% 29.98 0.0
15 02:10 SW 5 10.00 Fair CLR 71.6 71.6 100% 29.99 0.0
15 01:50 S 5 10.00 Fair CLR 71.6 71.6 100% 29.99 0.0
15 01:30 S 3 10.00 Fair CLR 71.6 71.6 100% 30 0.0
15 01:10 S 5 10.00 Fair CLR 71.6 71.6 100% 30 0.0
15 00:50 SW 3 10.00 Fair CLR 73.4 73.4 100% 30 0.0
15 00:30 Calm 10.00 Fair CLR 73.4 73.4 100% 30.01 0.0
15 00:10 SW 3 10.00 Fair CLR 73.4 73.4 100% 30.01 0.0
14 23:50 S 5 10.00 Fair CLR 73.4 73.4 100% 30.01 0.0
14 23:30 S 3 10.00 Fair CLR 73.4 73.4 100% 30.01 0.0
14 23:10 S 6 10.00 Fair CLR 75.2 73.4 94% 74 30.02 0.0
14 22:50 S 6 10.00 Fair CLR 75.2 73.4 94% 74 30.02 0.0
14 22:30 S 6 10.00 Fair CLR 77 75.2 94% 78 30.03 0.0
14 22:10 S 5 10.00 Fair CLR 77 75.2 94% 78 30.02 0.0
14 21:50 S 3 10.00 Fair CLR 77 75.2 94% 78 30.02 0.0
14 21:30 S 5 10.00 Fair CLR 78.8 75.2 89% 82 30.02 0.0
14 20:50 SE 5 10.00 Fair CLR 80.6 77 89% 87 30.02 0.0
14 20:30 S 3 10.00 Fair CLR 80.6 75.2 84% 86 30.02 0.0
14 20:10 S 5 10.00 Fair CLR 82.4 75.2 79% 89 30.02 0.0
14 19:50 S 5 10.00 Fair CLR 82.4 75.2 79% 89 30.02 0.0
14 19:30 S 7 10.00 Fair CLR 84.2 75.2 74% 92 30.01 0.0
14 19:10 S 7 10.00 Fair CLR 86 75.2 70% 95 30.01 0.0
14 18:50 S 6 10.00 Fair CLR 87.8 77 70% 100 30.01 0.0
14 18:30 SW 8 10.00 Fair CLR 87.8 77 70% 100 30 0.0
14 17:50 SW 9 10.00 Partly Cloudy SCT060 SCT065 91.4 80.6 71% 111 29.98 0.0
14 17:30 SW 8 10.00 Fair CLR 91.4 78.8 67% 108 29.98 0.0
14 17:10 SW 8 10.00 Partly Cloudy SCT050 SCT060 91.4 80.6 71% 111 29.99 0.0
14 16:50 SW 6 10.00 Partly Cloudy SCT050 SCT060 SCT075 91.4 80.6 71% 111 29.99 0.0
14 16:30 SW 8 10.00 Partly Cloudy SCT050 SCT075 91.4 80.6 71% 111 29.99 0.0
14 16:10 W 8 10.00 Partly Cloudy SCT050 91.4 80.6 71% 111 30 0.0
14 15:50 SW 8 10.00 Partly Cloudy SCT050 91.4 80.6 71% 111 30.01 0.0
14 15:30 W 7 10.00 Partly Cloudy SCT049 91.4 80.6 71% 111 30.02 0.0
14 15:10 SW 5 10.00 Mostly Cloudy SCT046 BKN049 89.6 80.6 75% 108 30.03 0.0
14 14:50 W 7 10.00 Fair CLR 91.4 80.6 71% 111 30.04 0.0
14 14:30 W 8 10.00 Fair CLR 91.4 78.8 67% 108 30.04 0.0
14 14:10 W 6 10.00 Fair CLR 91.4 78.8 67% 108 30.05 0.0
14 13:50 SW 9 10.00 Fair CLR 91.4 78.8 67% 108 30.05 0.0
14 13:30 SW 8 10.00 Partly Cloudy SCT045 91.4 78.8 67% 108 30.06 0.0
14 13:10 SW 3 10.00 Partly Cloudy SCT043 89.6 80.6 75% 108 30.07 0.0
14 12:50 SW 3 10.00 Fair CLR 89.6 78.8 71% 105 30.08 0.0
14 12:30 W 3 10.00 Fair CLR 89.6 78.8 71% 105 30.08 0.0
14 12:05 W 5 10.00 Fair CLR 87.8 78.8 75% 102 30.09 0.0
14 11:50 W 6 10.00 Fair CLR 87.8 78.8 75% 102 30.09 0.0
14 11:30 SW 7 10.00 Fair CLR 87.8 78.8 75% 102 30.09 0.0
14 11:10 SW 6 10.00 Partly Cloudy SCT120 87.8 80.6 79% 105 30.09 0.0
14 10:50 SW 7 10.00 Partly Cloudy SCT120 86 80.6 84% 102 30.09 0.0
14 10:30 SW 7 10.00 Fair CLR 86 80.6 84% 102 30.1 0.0
14 10:10 SW 5 10.00 Fair CLR 84.2 78.8 84% 96 30.1 0.0
14 09:50 S 5 10.00 Fair CLR 82.4 80.6 94% 94 30.1 0.0
Date Time (edt) Wind (mph) Vis. (mi.) Weather Sky Cond. Air Dwpt Max. Min. Relative Humidity Wind Chill (°F) Heat Index (°F) altimeter (in) sea level (mb) 1 hr 3 hr 6 hr
6 hour
Temperature (ºF) Pressure Precipitation (in)